Regional Weather Roundup
Issued by NWS

Home | Current Version | Previous Version | Text Only | Print | Product List | Glossary Off
Versions: 1 2 3 4 5 6 7 8 9 10 11 12 13 14 15 16 17 18 19 20 21 22 23 24 25 26 27 28 29 30 31 32 33 34 35 36 37 38 39 40 41 42 43 44 45 46 47 48 49 50

000
ASUS43 KLMK 201002
RWRKY
KENTUCKY REGIONAL WEATHER ROUNDUP
NATIONAL WEATHER SERVICE LOUISVILLE KY
500 AM EST FRI JAN 20 2017

NOTE "FAIR" INDICATES FEW OR NO CLOUDS BELOW 12,000 FEET
WITH NO SIGNIFICANT WEATHER AND/OR OBSTRUCTIONS TO VISIBILITY.

KYZ001>023-026-027-061>063-070>075-201100-
WESTERN AND SOUTH CENTRAL KENTUCKY

CITY           SKY/WX    TMP DP  RH WIND       PRES   REMARKS
PADUCAH        LGT RAIN  55  51  86 SW12G23   29.66S
HENDERSON      CLOUDY    55  52  88 SW13      29.65R
OWENSBORO      CLOUDY    57  54  89 SW15G22   29.66R
HOPKINSVILLE   CLOUDY    55  55 100 SW14      29.70R
BOWLING GREEN  CLOUDY    57  54  89 SW10      29.70R
GLASGOW        NOT AVBL
$$

KYZ024-025-028>034-038-045-046-053-201100-
NORTH CENTRAL KENTUCKY

CITY           SKY/WX    TMP DP  RH WIND       PRES   REMARKS
LOUISVILLE/SDF CLOUDY    56  53  90 SW9       29.65R
LOUISVILLE/LOU CLOUDY    55  53  93 SW5       29.65R
FORT KNOX      CLOUDY    55  55 100 SW8       29.64R
$$

KYZ035>037-039>044-047>052-055>060-089>105-201100-
NORTHEAST KENTUCKY

CITY           SKY/WX    TMP DP  RH WIND       PRES   REMARKS
LEXINGTON      CLOUDY    55  53  93 SW13      29.66R FOG
COVINGTON      LGT RAIN  52  51  97 SW7       29.61R FOG
FRANKFORT      CLOUDY    57  53  86 W8        29.64R
$$

KYZ054-064>069-076>088-106>120-201100-
SOUTHEAST KENTUCKY

CITY           SKY/WX    TMP DP  RH WIND       PRES   REMARKS
JACKSON        CLOUDY    51  49  92 VRB5      29.68R
LONDON         CLOUDY    54  51  90 SW7       29.72R
SOMERSET       CLOUDY    52  52 100 S5        29.73S
MIDDLESBORO    CLOUDY    53  51  92 SE3       29.77R
MONTICELLO     CLOUDY    56  54  93 W14       29.73S
$$




USA.gov is the U.S. government's official web portal to all federal, state and local government web resources and services.